Time,TemperatureF,DewpointF,PressureIn,WindDirection,WindDirectionDegrees,WindSpeedMPH,WindSpeedGustMPH,Humidity,HourlyPrecipIn,Conditions,Clouds,dailyrainin,SoftwareType,DateUTC
2013-02-04 00:03:00,40.0,34.0,30.02,NNW,342,0.0,0.0,79,0.00,,,0.00,,2013-02-04 05:03:00,
2013-02-04 00:12:00,40.0,34.0,30.02,NNW,342,0.0,0.0,79,0.00,,,0.00,,2013-02-04 05:12:00,
2013-02-04 00:22:00,40.0,34.0,30.03,NNW,341,0.0,0.0,79,0.00,,,0.00,,2013-02-04 05:22:00,
2013-02-04 00:33:00,40.0,34.0,30.03,NNW,341,0.0,0.0,79,0.00,,,0.00,,2013-02-04 05:33:00,
2013-02-04 00:42:00,40.0,34.0,30.03,NNW,341,0.0,0.0,79,0.00,,,0.00,,2013-02-04 05:42:00,
2013-02-04 00:52:00,39.0,34.0,30.02,NNW,342,0.0,0.0,81,0.00,,,0.00,,2013-02-04 05:52:00,
2013-02-04 01:02:00,39.0,34.0,30.02,NNW,342,0.0,0.0,81,0.00,,,0.00,,2013-02-04 06:02:00,
2013-02-04 01:11:00,39.0,34.0,30.02,NNW,342,0.0,0.0,81,0.00,,,0.00,,2013-02-04 06:11:00,
2013-02-04 01:21:00,39.0,34.0,30.02,NNW,342,0.0,0.0,81,0.00,,,0.00,,2013-02-04 06:21:00,
2013-02-04 01:32:00,38.0,33.0,30.03,NNW,342,0.0,0.0,83,0.00,,,0.00,,2013-02-04 06:32:00,
2013-02-04 01:42:00,38.0,33.0,30.03,NNW,342,0.0,0.0,83,0.00,,,0.00,,2013-02-04 06:42:00,
2013-02-04 01:52:00,37.0,32.0,30.03,NNW,341,0.0,0.0,83,0.00,,,0.00,,2013-02-04 06:52:00,
2013-02-04 02:02:00,37.0,33.0,30.03,NNW,341,0.0,0.0,85,0.00,,,0.00,,2013-02-04 07:02:00,
2013-02-04 02:11:00,37.0,33.0,30.03,NNW,341,0.0,0.0,85,0.00,,,0.00,,2013-02-04 07:11:00,
2013-02-04 02:21:00,37.0,33.0,30.03,NNW,342,0.0,1.0,85,0.00,,,0.00,,2013-02-04 07:21:00,
2013-02-04 02:32:00,37.0,33.0,30.03,NNW,342,0.0,0.0,84,0.00,,,0.00,,2013-02-04 07:32:00,
2013-02-04 02:42:00,37.0,33.0,30.03,NNW,342,0.0,0.0,84,0.00,,,0.00,,2013-02-04 07:42:00,
2013-02-04 02:52:00,37.0,33.0,30.03,NNW,342,0.0,0.0,84,0.00,,,0.00,,2013-02-04 07:52:00,
2013-02-04 03:01:00,37.0,33.0,30.04,NNW,341,0.0,0.0,85,0.00,,,0.00,,2013-02-04 08:01:00,
2013-02-04 03:11:00,37.0,33.0,30.04,NNW,341,0.0,0.0,85,0.00,,,0.00,,2013-02-04 08:11:00,
2013-02-04 03:21:00,36.0,32.0,30.03,NNW,342,0.0,1.0,86,0.00,,,0.00,,2013-02-04 08:21:00,
2013-02-04 03:32:00,36.0,32.0,30.03,NNW,342,0.0,1.0,86,0.00,,,0.00,,2013-02-04 08:32:00,
2013-02-04 03:42:00,36.0,32.0,30.03,NNW,342,0.0,1.0,86,0.00,,,0.00,,2013-02-04 08:42:00,
2013-02-04 03:52:00,36.0,32.0,30.03,NNW,342,0.0,1.0,86,0.00,,,0.00,,2013-02-04 08:52:00,
2013-02-04 04:02:00,36.0,32.0,30.03,NNW,342,0.0,1.0,86,0.00,,,0.00,,2013-02-04 09:02:00,
2013-02-04 04:21:00,36.0,32.0,30.02,NNW,342,0.0,0.0,84,0.00,,,0.00,,2013-02-04 09:21:00,
2013-02-04 04:32:00,36.0,32.0,30.02,NNW,342,0.0,0.0,86,0.00,,,0.00,,2013-02-04 09:32:00,
2013-02-04 04:42:00,36.0,32.0,30.02,NNW,342,0.0,0.0,86,0.00,,,0.00,,2013-02-04 09:42:00,
2013-02-04 04:52:00,36.0,32.0,30.03,NNW,342,0.0,0.0,86,0.00,,,0.00,,2013-02-04 09:52:00,
2013-02-04 05:02:00,35.0,32.0,30.03,NNW,342,0.0,0.0,88,0.00,,,0.00,,2013-02-04 10:02:00,
2013-02-04 05:11:00,35.0,32.0,30.03,NNW,342,0.0,0.0,88,0.00,,,0.00,,2013-02-04 10:11:00,
2013-02-04 05:21:00,35.0,32.0,30.03,NNW,342,0.0,1.0,90,0.00,,,0.00,,2013-02-04 10:21:00,
2013-02-04 05:32:00,35.0,32.0,30.03,NNW,342,0.0,1.0,90,0.00,,,0.00,,2013-02-04 10:32:00,
2013-02-04 05:42:00,35.0,32.0,30.03,NNW,342,0.0,1.0,90,0.00,,,0.00,,2013-02-04 10:42:00,
2013-02-04 05:52:00,35.0,32.0,30.03,NNW,342,0.0,1.0,90,0.00,,,0.00,,2013-02-04 10:52:00,
2013-02-04 06:02:00,35.0,32.0,30.06,NNW,342,0.0,0.0,90,0.00,,,0.00,,2013-02-04 11:02:00,
2013-02-04 06:11:00,35.0,32.0,30.06,NNW,342,0.0,0.0,90,0.00,,,0.00,,2013-02-04 11:11:00,
2013-02-04 06:22:00,34.0,31.0,30.06,NNW,342,0.0,0.0,90,0.00,,,0.00,,2013-02-04 11:22:00,
2013-02-04 06:33:00,34.0,31.0,30.06,NNW,342,0.0,0.0,90,0.00,,,0.00,,2013-02-04 11:33:00,
2013-02-04 06:42:00,34.0,31.0,30.06,NNW,342,0.0,0.0,90,0.00,,,0.00,,2013-02-04 11:42:00,
2013-02-04 06:52:00,34.0,32.0,30.06,NNW,342,0.0,0.0,91,0.00,,,0.00,,2013-02-04 11:52:00,
2013-02-04 07:02:00,33.0,31.0,30.06,NNW,342,0.0,0.0,91,0.00,,,0.00,,2013-02-04 12:02:00,
2013-02-04 07:12:00,33.0,31.0,30.06,NNW,342,0.0,0.0,91,0.00,,,0.00,,2013-02-04 12:12:00,
2013-02-04 07:22:00,33.0,31.0,30.07,NNW,342,0.0,0.0,91,0.00,,,0.00,,2013-02-04 12:22:00,
2013-02-04 07:32:00,33.0,30.0,30.09,NNW,342,0.0,0.0,90,0.00,,,0.00,,2013-02-04 12:32:00,
2013-02-04 07:42:00,33.0,30.0,30.09,NNW,342,0.0,0.0,90,0.00,,,0.00,,2013-02-04 12:42:00,
2013-02-04 07:52:00,32.0,30.0,30.09,NNW,342,0.0,0.0,91,0.00,,,0.00,,2013-02-04 12:52:00,
2013-02-04 08:03:00,32.0,30.0,30.09,NNW,342,0.0,0.0,93,0.00,,,0.00,,2013-02-04 13:03:00,
2013-02-04 08:12:00,32.0,30.0,30.09,NNW,342,0.0,0.0,93,0.00,,,0.00,,2013-02-04 13:12:00,
2013-02-04 08:22:00,32.0,30.0,30.09,NNW,342,0.0,0.0,93,0.00,,,0.00,,2013-02-04 13:22:00,
2013-02-04 08:33:00,34.0,32.0,30.12,NNW,342,0.0,0.0,94,0.00,,,0.00,,2013-02-04 13:33:00,
2013-02-04 08:42:00,34.0,32.0,30.12,NNW,342,0.0,0.0,94,0.00,,,0.00,,2013-02-04 13:42:00,
2013-02-04 08:52:00,38.0,36.0,30.13,NNW,342,1.0,3.0,91,0.00,,,0.00,,2013-02-04 13:52:00,
2013-02-04 09:03:00,38.0,36.0,30.13,NNW,342,1.0,3.0,91,0.00,,,0.00,,2013-02-04 14:03:00,
2013-02-04 09:12:00,38.0,36.0,30.13,NNW,342,1.0,3.0,91,0.00,,,0.00,,2013-02-04 14:12:00,
2013-02-04 09:23:00,38.0,36.0,30.13,NNW,342,1.0,3.0,91,0.00,,,0.00,,2013-02-04 14:23:00,
2013-02-04 09:33:00,38.0,36.0,30.13,NNW,342,1.0,3.0,91,0.00,,,0.00,,2013-02-04 14:33:00,
2013-02-04 09:53:00,47.0,31.0,30.13,NE,38,2.0,8.0,54,0.00,,,0.00,,2013-02-04 14:53:00,
2013-02-04 10:03:00,47.0,31.0,30.13,NE,38,2.0,8.0,54,0.00,,,0.00,,2013-02-04 15:03:00,
2013-02-04 10:13:00,47.0,31.0,30.13,NE,38,2.0,8.0,54,0.00,,,0.00,,2013-02-04 15:13:00,
2013-02-04 10:24:00,48.0,31.0,30.13,NNE,12,2.0,8.0,51,0.00,,,0.00,,2013-02-04 15:24:00,
2013-02-04 10:33:00,49.0,31.0,30.13,North,355,3.0,6.0,49,0.00,,,0.00,,2013-02-04 15:33:00,
2013-02-04 10:43:00,49.0,31.0,30.13,North,355,3.0,6.0,49,0.00,,,0.00,,2013-02-04 15:43:00,
2013-02-04 10:52:00,50.0,31.0,30.12,SSW,195,2.0,8.0,47,0.00,,,0.00,,2013-02-04 15:52:00,
2013-02-04 11:03:00,50.0,31.0,30.12,SSW,195,2.0,8.0,47,0.00,,,0.00,,2013-02-04 16:03:00,
2013-02-04 11:11:00,50.0,31.0,30.12,SSW,195,2.0,8.0,47,0.00,,,0.00,,2013-02-04 16:11:00,
2013-02-04 11:23:00,50.0,31.0,30.12,SSW,195,2.0,8.0,47,0.00,,,0.00,,2013-02-04 16:23:00,
2013-02-04 11:33:00,52.0,30.0,30.11,NNE,20,3.0,7.0,43,0.00,,,0.00,,2013-02-04 16:33:00,
2013-02-04 11:43:00,52.0,30.0,30.11,NNE,20,3.0,7.0,43,0.00,,,0.00,,2013-02-04 16:43:00,
2013-02-04 11:52:00,53.0,33.0,30.10,North,11,2.0,7.0,46,0.00,,,0.00,,2013-02-04 16:52:00,
2013-02-04 12:02:00,53.0,33.0,30.10,North,11,2.0,7.0,46,0.00,,,0.00,,2013-02-04 17:02:00,
2013-02-04 12:11:00,53.0,33.0,30.10,North,11,2.0,7.0,46,0.00,,,0.00,,2013-02-04 17:11:00,
2013-02-04 12:21:00,53.0,32.0,30.10,North,354,2.0,9.0,45,0.00,,,0.00,,2013-02-04 17:21:00,
2013-02-04 12:32:00,53.0,32.0,30.10,North,354,2.0,9.0,45,0.00,,,0.00,,2013-02-04 17:32:00,
2013-02-04 12:42:00,53.0,32.0,30.10,North,354,2.0,9.0,45,0.00,,,0.00,,2013-02-04 17:42:00,
2013-02-04 12:51:00,53.0,32.0,30.10,North,354,2.0,9.0,45,0.00,,,0.00,,2013-02-04 17:51:00,
2013-02-04 13:03:00,54.0,33.0,30.08,ENE,57,2.0,7.0,44,0.00,,,0.00,,2013-02-04 18:03:00,
2013-02-04 13:12:00,54.0,33.0,30.08,ENE,57,2.0,7.0,44,0.00,,,0.00,,2013-02-04 18:12:00,
2013-02-04 13:22:00,54.0,33.0,30.08,ENE,57,2.0,7.0,44,0.00,,,0.00,,2013-02-04 18:22:00,
2013-02-04 13:32:00,54.0,33.0,30.08,ENE,57,2.0,7.0,44,0.00,,,0.00,,2013-02-04 18:32:00,
2013-02-04 13:42:00,54.0,33.0,30.08,ENE,57,2.0,7.0,44,0.00,,,0.00,,2013-02-04 18:42:00,
2013-02-04 13:52:00,55.0,36.0,30.07,NNE,26,3.0,8.0,49,0.00,,,0.00,,2013-02-04 18:52:00,
2013-02-04 14:02:00,56.0,37.0,30.06,SSE,159,2.0,5.0,48,0.00,,,0.00,,2013-02-04 19:02:00,
2013-02-04 14:12:00,56.0,37.0,30.06,SSE,159,2.0,5.0,48,0.00,,,0.00,,2013-02-04 19:12:00,
2013-02-04 14:22:00,55.0,36.0,30.06,NNE,26,2.0,6.0,49,0.00,,,0.00,,2013-02-04 19:22:00,
2013-02-04 14:32:00,55.0,36.0,30.06,NNE,26,2.0,6.0,49,0.00,,,0.00,,2013-02-04 19:32:00,
2013-02-04 14:42:00,55.0,36.0,30.06,NNE,26,2.0,6.0,49,0.00,,,0.00,,2013-02-04 19:42:00,
2013-02-04 14:52:00,55.0,37.0,30.06,ESE,106,3.0,6.0,50,0.00,,,0.00,,2013-02-04 19:52:00,
2013-02-04 15:02:00,55.0,37.0,30.06,ESE,106,3.0,6.0,50,0.00,,,0.00,,2013-02-04 20:02:00,
2013-02-04 15:12:00,55.0,37.0,30.06,ESE,106,3.0,6.0,50,0.00,,,0.00,,2013-02-04 20:12:00,
2013-02-04 15:22:00,55.0,37.0,30.05,ESE,108,1.0,7.0,50,0.00,,,0.00,,2013-02-04 20:22:00,
2013-02-04 15:32:00,55.0,37.0,30.05,ESE,108,1.0,7.0,50,0.00,,,0.00,,2013-02-04 20:32:00,
2013-02-04 15:42:00,55.0,37.0,30.05,ESE,108,1.0,7.0,50,0.00,,,0.00,,2013-02-04 20:42:00,
2013-02-04 15:52:00,55.0,35.0,30.06,SSE,149,3.0,6.0,47,0.00,,,0.00,,2013-02-04 20:52:00,
2013-02-04 16:03:00,55.0,35.0,30.06,SSE,149,3.0,6.0,47,0.00,,,0.00,,2013-02-04 21:03:00,
2013-02-04 16:12:00,55.0,35.0,30.06,SSE,149,3.0,6.0,47,0.00,,,0.00,,2013-02-04 21:12:00,
2013-02-04 16:23:00,55.0,35.0,30.06,SSE,149,3.0,6.0,47,0.00,,,0.00,,2013-02-04 21:23:00,
2013-02-04 16:32:00,55.0,35.0,30.06,SSE,149,3.0,6.0,47,0.00,,,0.00,,2013-02-04 21:32:00,
2013-02-04 16:52:00,54.0,39.0,30.06,SSE,155,2.0,6.0,56,0.00,,,0.00,,2013-02-04 21:52:00,
2013-02-04 17:03:00,54.0,39.0,30.06,SSE,155,2.0,6.0,56,0.00,,,0.00,,2013-02-04 22:03:00,
2013-02-04 17:12:00,54.0,39.0,30.06,SSE,155,2.0,6.0,56,0.00,,,0.00,,2013-02-04 22:12:00,
2013-02-04 17:21:00,53.0,39.0,30.06,SSE,155,2.0,5.0,58,0.00,,,0.00,,2013-02-04 22:21:00,
2013-02-04 17:32:00,53.0,39.0,30.06,SSE,154,2.0,3.0,59,0.00,,,0.00,,2013-02-04 22:32:00,
2013-02-04 17:42:00,53.0,39.0,30.06,SSE,154,2.0,3.0,59,0.00,,,0.00,,2013-02-04 22:42:00,
2013-02-04 17:52:00,52.0,39.0,30.06,ESE,115,1.0,3.0,60,0.00,,,0.00,,2013-02-04 22:52:00,
2013-02-04 18:01:00,51.0,38.0,30.05,SSE,166,1.0,3.0,62,0.00,,,0.00,,2013-02-04 23:01:00,
2013-02-04 18:11:00,51.0,38.0,30.05,SSE,166,1.0,3.0,62,0.00,,,0.00,,2013-02-04 23:11:00,
2013-02-04 18:22:00,51.0,39.0,30.05,SSE,158,1.0,2.0,64,0.00,,,0.00,,2013-02-04 23:22:00,
2013-02-04 18:32:00,51.0,39.0,30.05,SSE,158,1.0,2.0,64,0.00,,,0.00,,2013-02-04 23:32:00,
2013-02-04 18:42:00,51.0,39.0,30.05,SSE,158,1.0,2.0,64,0.00,,,0.00,,2013-02-04 23:42:00,
2013-02-04 18:52:00,50.0,39.0,30.05,SSE,161,1.0,2.0,66,0.00,,,0.00,,2013-02-04 23:52:00,
2013-02-04 19:02:00,50.0,39.0,30.05,SSE,161,1.0,2.0,66,0.00,,,0.00,,2013-02-05 00:02:00,
2013-02-04 19:12:00,50.0,39.0,30.05,SSE,161,1.0,2.0,66,0.00,,,0.00,,2013-02-05 00:12:00,
2013-02-04 19:22:00,49.0,40.0,30.05,SSE,162,0.0,1.0,70,0.00,,,0.00,,2013-02-05 00:22:00,
2013-02-04 19:32:00,48.0,39.0,30.05,SSE,161,0.0,0.0,71,0.00,,,0.00,,2013-02-05 00:32:00,
2013-02-04 19:42:00,48.0,39.0,30.05,SSE,161,0.0,0.0,71,0.00,,,0.00,,2013-02-05 00:42:00,
2013-02-04 19:52:00,47.0,39.0,30.06,SSE,161,0.0,0.0,74,0.00,,,0.00,,2013-02-05 00:52:00,
2013-02-04 20:02:00,47.0,39.0,30.07,SSE,162,0.0,0.0,74,0.00,,,0.00,,2013-02-05 01:02:00,
2013-02-04 20:12:00,47.0,39.0,30.07,SSE,162,0.0,0.0,74,0.00,,,0.00,,2013-02-05 01:12:00,
2013-02-04 20:22:00,47.0,40.0,30.06,SSE,161,0.0,0.0,76,0.00,,,0.00,,2013-02-05 01:22:00,
2013-02-04 20:32:00,46.0,40.0,30.05,SSE,162,0.0,0.0,78,0.00,,,0.00,,2013-02-05 01:32:00,
2013-02-04 20:42:00,46.0,40.0,30.05,SSE,162,0.0,0.0,78,0.00,,,0.00,,2013-02-05 01:42:00,
2013-02-04 20:52:00,45.0,39.0,30.05,SSE,162,0.0,0.0,79,0.00,,,0.00,,2013-02-05 01:52:00,
2013-02-04 21:02:00,44.0,39.0,30.06,SSE,162,0.0,0.0,82,0.00,,,0.00,,2013-02-05 02:02:00,
2013-02-04 21:11:00,44.0,39.0,30.06,SSE,162,0.0,0.0,82,0.00,,,0.00,,2013-02-05 02:11:00,
2013-02-04 21:22:00,43.0,38.0,30.06,SSE,162,0.0,0.0,84,0.00,,,0.00,,2013-02-05 02:22:00,
2013-02-04 21:32:00,43.0,38.0,30.06,SSE,162,0.0,0.0,84,0.00,,,0.00,,2013-02-05 02:32:00,
2013-02-04 21:42:00,43.0,38.0,30.06,SSE,162,0.0,0.0,84,0.00,,,0.00,,2013-02-05 02:42:00,
2013-02-04 21:52:00,43.0,39.0,30.06,SSE,161,0.0,0.0,86,0.00,,,0.00,,2013-02-05 02:52:00,
2013-02-04 22:02:00,42.0,38.0,30.06,SSE,162,0.0,0.0,86,0.00,,,0.00,,2013-02-05 03:02:00,
2013-02-04 22:11:00,42.0,38.0,30.06,SSE,162,0.0,0.0,86,0.00,,,0.00,,2013-02-05 03:11:00,
2013-02-04 22:22:00,42.0,39.0,30.06,SSE,162,0.0,0.0,88,0.00,,,0.00,,2013-02-05 03:22:00,
2013-02-04 22:32:00,42.0,39.0,30.05,SSE,162,0.0,0.0,88,0.00,,,0.00,,2013-02-05 03:32:00,
2013-02-04 22:42:00,42.0,39.0,30.05,SSE,162,0.0,0.0,88,0.00,,,0.00,,2013-02-05 03:42:00,
2013-02-04 22:52:00,42.0,39.0,30.06,SSE,162,0.0,0.0,90,0.00,,,0.00,,2013-02-05 03:52:00,
2013-02-04 23:01:00,42.0,39.0,30.06,SSE,162,0.0,0.0,90,0.00,,,0.00,,2013-02-05 04:01:00,
2013-02-04 23:11:00,42.0,39.0,30.06,SSE,162,0.0,0.0,90,0.00,,,0.00,,2013-02-05 04:11:00,
2013-02-04 23:22:00,41.0,39.0,30.07,SSE,162,0.0,0.0,91,0.00,,,0.00,,2013-02-05 04:22:00,
2013-02-04 23:32:00,41.0,39.0,30.07,SSE,162,0.0,0.0,91,0.00,,,0.00,,2013-02-05 04:32:00,
2013-02-04 23:42:00,41.0,39.0,30.07,SSE,162,0.0,0.0,91,0.00,,,0.00,,2013-02-05 04:42:00,
2013-02-04 23:52:00,41.0,39.0,30.07,SSE,162,0.0,0.0,91,0.00,,,0.00,,2013-02-05 04:52:00,